Showing default

GALILEO 15 (267), 41859

Orbit data source: Space-Track

GALILEO 15 (267), 41859 is a payload satellite owned by GNSS Agency (ESA) that was launched on Thu, 17 Nov 2016 UTC via an ARIANE 5ES launch vehicle from the French Guiana (FRGUI). Payload-class satellites include a variety of spacecraft equipped with specific instruments for various scientific and technological missions. These include communications satellites like Starlink; space stations such as the ISS; scientific satellites like the Hubble; Earth observation satellites from companies like Planet Labs, Umbra, and HawkEye 360; GPS; miniature CubeSats for education and research; and military/defense satellites.

Loading next visibility...
Identifier
41859, 2016-069A
Orbit
Active
Country
Flag of ESAESA
Related business
Manufacturer
OHB
Mission
Operational Civil Navigation
Bus & Motor
GALILEOSAT, AOCS
Mass
738 kg wet, 700 kg dry
Launch date (UTC)
2016-11-17 (9 years ago)
Launch vehicle
ARIANE 5ES
Launch site
French Guiana (FRGUI)
Object type
Payload
Rocket body
Debris
Shape & HBR
Box + 2 Pan, 7.3 m
Radar Cross Section
9.223 m², Large (>1 m²)

Expand to show TLE details & history
Last TLE update: 2 days ago

TLE from 2 days ago
0 GALILEO 15 (267)
1 41859U 16069A   26035.17758859 -.00000017  00000-0  00000+0 0  9993
2 41859  55.4118 104.7683 0004165 308.2547  51.7735  1.70474485 57131
Epoch: 2026-02-04T04:15Z
TLE epoch observation values (Epoch: 2026-02-04T04:15:43.654Z)
Latitude
-0.00004°
Longitude
-93.48802°
Altitude
23,214.784 km
Speed
3.671 km/s
True Right ascension
06h 59m 10s
True Declination
0° 00' 00"
Sunlit
Object was in daylight at epoch
Visualization orbit readout
Latitude
Unknown
Longitude
Unknown
Altitude
Unknown
Speed
Unknown
Apparent Right ascension
Unknown
Apparent Declination
Unknown
Sunlit
N/A
Visualization observer readout
Local Sidereal Time
13:37:07
Azimuth
Unknown
Elevation
Unknown
Doppler factor
Unknown
Orbital elements
Apogee altitude
23,234.449 km
Perigee altitude
23,209.792 km
Semi-major axis
29,600.257 km
Eccentricity
0.00042
Inclination
55.4118°
RAAN
104.7683°
Arg. of periapsis
308.2547°
True anomaly
51.81101°
Mean anomaly
51.7735°
Eccentric anomaly
51.79225°
Mean motion
0.42619 °/min
Orbital period
844.7 mins
BSTAR
0
Loading maneuver chart data...
Computing Atmospheric mass density...
Loading historical data...
Loading historical data...
Loading historical data...
Loading historical data...
Loading historical data...
Loading historical data...
Loading historical data...
Other satellites on launch #69 in the year 2016 (2016-11-17 UTC)

Documentation

Showing up to 5 results
|